Home > Time Zones > World Clock > Weather > France > Lyon > Past weeks

Flag for France Weather past 2 weeks in Lyon, France

Now
82 °F

Clear.


Feels Like: 81 °F
Forecast: 67 / 92 °F
Wind: 10 mph from South

Location: Lyon / Bron

Current Time: Aug 30, 2015 at 10:11:40 PM

Latest Report: Aug 30, 2015 at 9:30 PM


Visibility: 10 mi

Pressure: 30.07 "Hg

Humidity: 35%

Dew point: 52 °F

Location of LyonLocation

Historic Weather in Lyon — Graph

°F

Lyon temperature yesterday

Maximum temperature yesterday: 93 °F (at 3:00 PM)
Minimum temperature yesterday: 66 °F (at 6:00 AM)
Average temperature yesterday: 81 °F

Past Weeks' High & Low Weather Summary

 TemperatureHumidityPressure
High93 °F (Aug 28, 3:30 PM)88% (Aug 23, 9:30 PM)30.21 "Hg (Aug 23, 9:30 PM)
Low52 °F (Aug 26, 7:00 AM)17% (Aug 30, 6:30 PM)29.68 "Hg (Aug 24, 4:00 AM)
Average72 °F51%30.01 "Hg
* Reported Aug 15 9:00 PM — Aug 30 9:00 PM, Lyon, Weather by CustomWeather, © 2015

Note: Actual official high and low records may vary slightly from our data, if they occured in-between our weather recording intervals... More about our weather records

Advertising

Lyon weather history for previous 24 hours

 ConditionsComfort  
Time TempWeatherWind HumidityBarometerVisibility
9:00 PM
Sun, Aug 30
84 °FSunny.7 mph23%30.04 "Hg10 mi
8:30 PM86 °FSunny.9 mph22%30.04 "Hg10 mi
8:00 PM88 °FSunny.15 mph19%30.04 "Hg10 mi
7:30 PM90 °FSunny.15 mph17%30.04 "Hg10 mi
7:00 PM91 °FSunny.16 mph18%30.04 "Hg10 mi
6:30 PM93 °FPassing clouds.18 mph17%30.04 "HgN/A
6:00 PM93 °FPassing clouds.18 mph20%30.04 "HgN/A
5:30 PM93 °FSunny.17 mph21%30.04 "Hg10 mi
5:00 PM93 °FPassing clouds.17 mph21%30.04 "HgN/A
4:30 PM93 °FPassing clouds.21 mph21%30.04 "HgN/A
4:00 PM93 °FPassing clouds.17 mph21%30.04 "HgN/A
3:30 PM93 °FPassing clouds.18 mph21%30.04 "HgN/A
3:00 PM93 °FSunny.22 mph21%30.07 "Hg10 mi
2:30 PM93 °FSunny.16 mph21%30.07 "Hg10 mi
2:00 PM91 °FSunny.21 mph23%30.07 "Hg10 mi
1:30 PM90 °FPassing clouds.21 mph24%30.07 "HgN/A
1:00 PM90 °FSunny.18 mph24%30.09 "Hg10 mi
12:30 PM90 °FSunny.17 mph26%30.09 "Hg10 mi
12:00 PM88 °FPassing clouds.15 mph27%30.09 "HgN/A
11:30 AM86 °FSunny.14 mph31%30.12 "Hg10 mi
11:00 AM84 °FSunny.15 mph37%30.12 "Hg10 mi
10:30 AM82 °FSunny.14 mph40%30.12 "Hg10 mi
10:00 AM81 °FPassing clouds.10 mph45%30.12 "HgN/A
9:30 AM77 °FSunny.7 mph51%30.12 "Hg10 mi
9:00 AM75 °FSunny.No wind54%30.12 "Hg10 mi
8:30 AM72 °FSunny.No wind57%30.12 "Hg10 mi
8:00 AM68 °FSunny.2 mph64%30.12 "Hg10 mi
7:30 AM66 °FClear.2 mph68%30.12 "Hg10 mi
7:00 AM66 °FPassing clouds.3 mph68%30.12 "HgN/A
6:30 AM68 °FClear.2 mph64%30.12 "Hg10 mi
6:00 AM68 °FClear.3 mph60%30.12 "Hg10 mi
5:30 AM68 °FClear.3 mph60%30.09 "Hg10 mi
5:00 AM70 °FClear.3 mph57%30.12 "Hg10 mi
4:30 AM72 °FClear.No wind53%30.12 "Hg10 mi
4:00 AM72 °FPassing clouds.5 mph53%30.12 "HgN/A
3:30 AM73 °FClear.7 mph50%30.12 "Hg10 mi
3:00 AM73 °FClear.8 mph47%30.12 "Hg10 mi
2:30 AM75 °FClear.8 mph44%30.12 "Hg10 mi
2:00 AM75 °FClear.8 mph44%30.12 "Hg10 mi
1:30 AM75 °FClear.9 mph44%30.12 "Hg10 mi
1:00 AM77 °FClear.12 mph42%30.12 "Hg10 mi
12:30 AM77 °FClear.10 mph42%30.12 "Hg10 mi
12:00 AM77 °FClear.9 mph44%30.12 "Hg10 mi
11:00 PM
Sat, Aug 29
79 °FClear.12 mph42%30.09 "Hg10 mi
10:30 PM79 °FClear.15 mph45%30.09 "Hg10 mi
10:00 PM81 °FClear.12 mph39%30.09 "Hg10 mi
Weather by CustomWeather, © 2015

See weather overviewHow to use our weather pages